NORTHEAST SUFFOLK  -  Air Quality Alert Air Quality Alert        NORTHERN NASSAU  -  Air Quality Alert Air Quality Alert        NORTHERN QUEENS  -  Air Quality Alert Air Quality Alert        NORTHWEST SUFFOLK  -  Air Quality Alert Air Quality Alert        SOUTHEAST SUFFOLK  -  Air Quality Alert Air Quality Alert        SOUTHERN NASSAU  -  Air Quality Alert Air Quality Alert        SOUTHERN QUEENS  -  Air Quality Alert Air Quality Alert        SOUTHWEST SUFFOLK  -  Air Quality Alert Air Quality Alert      

Active alerts

Northern Queens
  Details for Northern Queens Air Quality Alert
Southern Queens
  Details for Southern Queens Air Quality Alert
Northern Nassau
  Details for Northern Nassau Air Quality Alert
Southern Nassau
  Details for Southern Nassau Air Quality Alert
Northwest Suffolk
  Details for Northwest Suffolk Air Quality Alert
Southwest Suffolk
  Details for Southwest Suffolk Air Quality Alert
Northeast Suffolk
  Details for Northeast Suffolk Air Quality Alert
Southeast Suffolk
  Details for Southeast Suffolk Air Quality Alert


WXM80 ListenWXM80 Stop

You find our weather info also at:

UK Metoffice

WeatherCloud

Weather Underground

Northeastern Weather Network

AWEKAS

Citizen Weather Observer Program (CWOP)

HAMweather, WeatherForYou, PWS Weather


Weather Underground History page Text

Daily Summary for June 22, 2017 Units:  Metric    English   Both
« Previous Day
Next Day »
Daily Weekly Monthly Yearly Custom
  High: Low: Average:
Temperature: 30 °C 16.2 °C 23.4 °C
Dew Point: 21.1 °C 15 °C 17.4 °C
Humidity: 96 % 45 % 71 %
Wind Speed: 11.3 km/h 0 km/h 1.4 km/h
Wind Gust: 19.3 km/h - -
Wind:- - SSE
Pressure: 1015.8 hPa 1010.7 hPa -
Precipitation: 0 mm    
Historical Graphs
 
 
Tabular Data for June 22, 2017
Time Temperature Dew Point Pressure Wind Wind Speed Wind Gust Humidity Rainfall Rate (Hourly)
00:04 21.3 °C 17.1 °C 1012.4 hPa Calm   1.9 km/h 77 % 0 mm
00:09 21.3 °C 17.3 °C 1012.4 hPa Calm   1.9 km/h 78 % 0 mm
00:14 21.2 °C 17.2 °C 1012.4 hPa Calm     78 % 0 mm
00:19 21.1 °C 17.1 °C 1012.8 hPa Calm     78 % 0 mm
00:24 21.1 °C 17.1 °C 1012.4 hPa Calm     78 % 0 mm
00:29 20.9 °C 17.4 °C 1012.4 hPa Calm     80 % 0 mm
00:34 20.8 °C 17.3 °C 1012.4 hPa Calm     80 % 0 mm
00:39 20.7 °C 17.3 °C 1012.8 hPa Calm     81 % 0 mm
00:44 20.6 °C 17.2 °C 1012.8 hPa Calm     81 % 0 mm
00:45 20.6 °C 17.2 °C 1012.8 hPa Calm     81 % 0 mm
00:50 20.4 °C 17.3 °C 1012.8 hPa Calm     82 % 0 mm
00:55 20.3 °C 17.2 °C 1012.8 hPa Calm   1.9 km/h 82 % 0 mm
01:00 20.2 °C 17.2 °C 1012.8 hPa Calm     83 % 0 mm
01:05 20 °C 17 °C 1012.8 hPa Calm     83 % 0 mm
01:10 19.9 °C 16.9 °C 1012.8 hPa Calm     83 % 0 mm
01:15 19.7 °C 16.8 °C 1012.8 hPa Calm     83 % 0 mm
01:20 19.6 °C 16.8 °C 1012.8 hPa Calm     84 % 0 mm
01:25 19.4 °C 16.7 °C 1013.1 hPa Calm     84 % 0 mm
01:30 19.3 °C 16.7 °C 1013.1 hPa Calm     85 % 0 mm
01:35 19.2 °C 16.6 °C 1013.1 hPa Calm     85 % 0 mm
01:40 19.1 °C 16.7 °C 1013.1 hPa Calm     86 % 0 mm
01:46 19 °C 16.6 °C 1013.1 hPa Calm     86 % 0 mm
01:51 18.9 °C 16.5 °C 1013.1 hPa Calm     86 % 0 mm
01:56 18.8 °C 16.4 °C 1013.1 hPa WSW 1.6 km/h 3.2 km/h 86 % 0 mm
02:01 18.7 °C 16.5 °C 1013.1 hPa Calm     87 % 0 mm
02:06 18.6 °C 16.3 °C 1013.1 hPa WSW 1.3 km/h 3.7 km/h 87 % 0 mm
02:11 18.5 °C 16.5 °C 1013.1 hPa Calm     88 % 0 mm
02:16 18.4 °C 16.4 °C 1013.1 hPa WSW 0.2 km/h 3.7 km/h 88 % 0 mm
02:21 18.3 °C 16.3 °C 1013.1 hPa Calm     88 % 0 mm
02:26 18.2 °C 16.2 °C 1013.1 hPa Calm     88 % 0 mm
02:31 18.2 °C 16.2 °C 1013.1 hPa Calm     88 % 0 mm
02:36 18.1 °C 16.2 °C 1013.1 hPa Calm     89 % 0 mm
02:41 18.1 °C 16.2 °C 1013.1 hPa Calm     89 % 0 mm
02:46 17.9 °C 16.1 °C 1013.1 hPa Calm     89 % 0 mm
02:51 17.9 °C 16.1 °C 1013.1 hPa Calm     89 % 0 mm
02:56 17.8 °C 16 °C 1013.1 hPa Calm     89 % 0 mm
03:01 17.8 °C 16.1 °C 1013.1 hPa Calm     90 % 0 mm
03:06 17.7 °C 16.1 °C 1013.1 hPa Calm     90 % 0 mm
03:11 17.7 °C 16 °C 1013.1 hPa Calm     90 % 0 mm
03:17 17.6 °C 15.8 °C 1013.1 hPa Calm     89 % 0 mm
03:22 17.6 °C 15.9 °C 1013.4 hPa Calm     90 % 0 mm
03:27 17.5 °C 15.8 °C 1013.4 hPa Calm     90 % 0 mm
03:32 17.4 °C 15.8 °C 1013.4 hPa Calm     90 % 0 mm
03:37 17.4 °C 15.8 °C 1013.4 hPa Calm     90 % 0 mm
03:42 17.4 °C 15.7 °C 1013.4 hPa Calm     90 % 0 mm
03:45 17.3 °C 15.7 °C 1013.4 hPa Calm     90 % 0 mm
03:50 17.3 °C 15.8 °C 1013.4 hPa Calm     91 % 0 mm
03:55 17.2 °C 15.7 °C 1013.4 hPa Calm     91 % 0 mm
04:00 17.2 °C 15.7 °C 1013.4 hPa Calm   1.9 km/h 91 % 0 mm
04:05 17.1 °C 15.8 °C 1013.4 hPa Calm     92 % 0 mm
04:11 17.1 °C 15.6 °C 1013.4 hPa Calm     91 % 0 mm
04:16 17.1 °C 15.6 °C 1013.4 hPa Calm     91 % 0 mm
04:21 17 °C 15.5 °C 1013.8 hPa Calm     91 % 0 mm
04:26 16.9 °C 15.6 °C 1013.8 hPa Calm     92 % 0 mm
04:31 16.9 °C 15.6 °C 1013.4 hPa Calm     92 % 0 mm
04:36 16.8 °C 15.5 °C 1013.8 hPa Calm     92 % 0 mm
04:41 16.8 °C 15.5 °C 1013.8 hPa Calm     92 % 0 mm
04:46 16.8 °C 15.3 °C 1013.8 hPa Calm     91 % 0 mm
04:51 16.7 °C 15.3 °C 1013.8 hPa Calm     92 % 0 mm
04:54 16.7 °C 15.3 °C 1013.8 hPa Calm     92 % 0 mm
04:59 16.6 °C 15.3 °C 1013.8 hPa Calm     92 % 0 mm
05:04 16.6 °C 15.3 °C 1013.8 hPa Calm     92 % 0 mm
05:09 16.5 °C 15.2 °C 1013.8 hPa Calm     92 % 0 mm
05:14 16.4 °C 15.2 °C 1013.8 hPa Calm     92 % 0 mm
05:19 16.4 °C 15.2 °C 1014.1 hPa Calm     92 % 0 mm
05:24 16.4 °C 15.1 °C 1013.8 hPa Calm     92 % 0 mm
05:29 16.3 °C 15.1 °C 1014.1 hPa Calm     92 % 0 mm
05:34 16.3 °C 15 °C 1014.1 hPa Calm     92 % 0 mm
05:39 16.3 °C 15 °C 1014.1 hPa Calm     92 % 0 mm
05:44 16.2 °C 15.1 °C 1014.4 hPa Calm     93 % 0 mm
05:49 16.2 °C 15.1 °C 1014.4 hPa Calm     93 % 0 mm
05:54 16.2 °C 15.1 °C 1014.4 hPa Calm     93 % 0 mm
05:59 16.2 °C 15.1 °C 1014.4 hPa Calm     93 % 0 mm
06:01 16.2 °C 15.1 °C 1014.4 hPa Calm     93 % 0 mm
06:07 16.2 °C 15.1 °C 1014.4 hPa Calm     93 % 0 mm
06:12 16.2 °C 15.1 °C 1014.4 hPa Calm     93 % 0 mm
06:17 16.3 °C 15.3 °C 1014.4 hPa Calm     94 % 0 mm
06:22 16.3 °C 15.3 °C 1014.4 hPa Calm     94 % 0 mm
06:27 16.3 °C 15.4 °C 1014.4 hPa Calm   1.6 km/h 94 % 0 mm
06:32 16.5 °C 15.7 °C 1014.8 hPa Calm     95 % 0 mm
06:37 16.7 °C 15.9 °C 1014.8 hPa Calm     95 % 0 mm
06:42 16.9 °C 16.1 °C 1014.8 hPa Calm     95 % 0 mm
06:47 17.2 °C 16.6 °C 1014.8 hPa Calm     96 % 0 mm
06:52 17.7 °C 17 °C 1014.8 hPa Calm     96 % 0 mm
06:57 17.9 °C 17.3 °C 1014.8 hPa Calm     96 % 0 mm
07:02 18.2 °C 17.5 °C 1014.8 hPa Calm     96 % 0 mm
07:07 18.3 °C 17.6 °C 1014.8 hPa Calm     96 % 0 mm
07:12 18.4 °C 17.7 °C 1014.8 hPa Calm     96 % 0 mm
07:15 18.6 °C 17.7 °C 1015.1 hPa Calm     95 % 0 mm
07:20 18.8 °C 18 °C 1015.1 hPa Calm     95 % 0 mm
07:25 19.1 °C 18.1 °C 1015.1 hPa Calm     94 % 0 mm
07:30 19.4 °C 17.7 °C 1015.1 hPa Calm     90 % 0 mm
07:35 19.7 °C 17.6 °C 1015.1 hPa Calm     88 % 0 mm
07:40 19.9 °C 17.7 °C 1015.5 hPa Calm     87 % 0 mm
07:45 20.1 °C 17.5 °C 1015.1 hPa Calm   1.6 km/h 85 % 0 mm
07:50 20.2 °C 16.8 °C 1015.5 hPa Calm     81 % 0 mm
07:55 20.4 °C 17.2 °C 1015.1 hPa Calm     82 % 0 mm
08:00 20.4 °C 16.7 °C 1015.1 hPa Calm     79 % 0 mm
08:06 20.5 °C 16.3 °C 1015.5 hPa West 0.2 km/h 1.9 km/h 77 % 0 mm
08:11 20.6 °C 16.4 °C 1015.5 hPa Calm     77 % 0 mm
08:16 20.7 °C 16.9 °C 1015.5 hPa Calm   4.8 km/h 79 % 0 mm
08:21 20.7 °C 16.3 °C 1015.5 hPa Calm   1.9 km/h 76 % 0 mm
08:26 20.7 °C 16.3 °C 1015.5 hPa NNW 1.6 km/h 4.8 km/h 76 % 0 mm
08:31 20.8 °C 15.8 °C 1015.8 hPa Calm   3.2 km/h 73 % 0 mm
08:36 20.9 °C 16.3 °C 1015.5 hPa Calm   3.2 km/h 75 % 0 mm
08:41 21 °C 16 °C 1015.5 hPa Calm   3.2 km/h 73 % 0 mm
08:46 21.2 °C 16.6 °C 1015.8 hPa Calm   1.6 km/h 75 % 0 mm
08:51 21.2 °C 16.2 °C 1015.8 hPa North 1.6 km/h 3.2 km/h 73 % 0 mm
08:56 21.3 °C 16.1 °C 1015.8 hPa North 3.2 km/h 6.4 km/h 72 % 0 mm
09:01 21.4 °C 16.4 °C 1015.8 hPa North 2.6 km/h 3.2 km/h 73 % 0 mm
09:06 21.5 °C 16 °C 1015.5 hPa NNE 0.3 km/h 3.7 km/h 71 % 0 mm
09:11 21.5 °C 15.6 °C 1015.5 hPa NNE 1.3 km/h 3.7 km/h 69 % 0 mm
09:16 21.5 °C 15.8 °C 1015.5 hPa NNE 2.1 km/h 5.6 km/h 70 % 0 mm
09:21 21.6 °C 15.8 °C 1015.1 hPa NNE 1.4 km/h 3.7 km/h 70 % 0 mm
09:26 21.6 °C 16.1 °C 1015.1 hPa Calm   1.9 km/h 71 % 0 mm
09:31 21.6 °C 16.3 °C 1015.1 hPa NNE 0.3 km/h   72 % 0 mm
09:36 21.7 °C 15.9 °C 1015.1 hPa NNE 1.3 km/h 3.7 km/h 70 % 0 mm
09:41 21.8 °C 16.1 °C 1014.8 hPa NNE 0.5 km/h 1.9 km/h 70 % 0 mm
09:46 22 °C 16.3 °C 1014.8 hPa North 4.5 km/h 7.4 km/h 70 % 0 mm
09:51 22.3 °C 16.6 °C 1015.1 hPa North 3.9 km/h 9.3 km/h 70 % 0 mm
09:56 22.7 °C 16.3 °C 1014.8 hPa NE 1 km/h 3.7 km/h 67 % 0 mm
10:01 23.2 °C 16.8 °C 1014.8 hPa NNE 2.3 km/h 5.6 km/h 67 % 0 mm
10:06 23.7 °C 17.7 °C 1014.8 hPa Calm   1.9 km/h 69 % 0 mm
10:11 24.3 °C 17.6 °C 1014.8 hPa Calm   1.9 km/h 66 % 0 mm
10:16 24.9 °C 17.8 °C 1014.8 hPa Calm   1.9 km/h 65 % 0 mm
10:21 25.3 °C 18 °C 1014.4 hPa WSW 1 km/h 3.7 km/h 64 % 0 mm
10:26 25.7 °C 17.9 °C 1014.4 hPa North 1.3 km/h 3.7 km/h 62 % 0 mm
10:31 25.8 °C 17.5 °C 1014.1 hPa Calm     60 % 0 mm
10:36 26 °C 18.4 °C 1014.1 hPa North 1 km/h 3.2 km/h 63 % 0 mm
10:41 26.4 °C 19.3 °C 1013.8 hPa Calm     65 % 0 mm
10:47 26.8 °C 17.6 °C 1014.1 hPa North 1.9 km/h 3.7 km/h 57 % 0 mm
10:52 27.1 °C 17.8 °C 1014.1 hPa North 0.5 km/h 3.7 km/h 57 % 0 mm
10:56 27.4 °C 17.9 °C 1014.4 hPa NNE 1.8 km/h 5.6 km/h 56 % 0 mm
11:01 27.6 °C 18.1 °C 1014.4 hPa ENE 1 km/h 5.6 km/h 56 % 0 mm
11:07 27.8 °C 18.6 °C 1014.1 hPa North 0.6 km/h 1.9 km/h 57 % 0 mm
11:12 28.1 °C 18.2 °C 1014.1 hPa NE 1.6 km/h 3.7 km/h 55 % 0 mm
11:17 28.4 °C 18.6 °C 1014.1 hPa North 1.1 km/h 3.7 km/h 55 % 0 mm
11:22 28.7 °C 18.8 °C 1014.1 hPa North 1.9 km/h 5.6 km/h 55 % 0 mm
11:27 28.9 °C 17.5 °C 1014.1 hPa North 3.1 km/h 5.6 km/h 50 % 0 mm
11:32 29.2 °C 18.7 °C 1014.1 hPa NNE 4.2 km/h 5.6 km/h 53 % 0 mm
11:37 29.3 °C 18.4 °C 1014.1 hPa NE 1.9 km/h 7.4 km/h 52 % 0 mm
11:42 29.3 °C 18.2 °C 1014.1 hPa ENE 1.3 km/h 3.7 km/h 51 % 0 mm
11:47 29.3 °C 18.4 °C 1014.1 hPa Calm   1.9 km/h 52 % 0 mm
11:52 29.4 °C 18.9 °C 1014.1 hPa NE 0.5 km/h 3.7 km/h 53 % 0 mm
11:57 29.6 °C 17.1 °C 1014.1 hPa WNW 1.8 km/h 5.6 km/h 47 % 0 mm
12:02 29.7 °C 18.2 °C 1014.1 hPa North 2.9 km/h 8 km/h 50 % 0 mm
12:07 29.8 °C 17.6 °C 1014.1 hPa NNE 0.5 km/h 4.8 km/h 48 % 0 mm
12:12 29.7 °C 18.5 °C 1014.1 hPa NW 1.4 km/h 4.8 km/h 51 % 0 mm
12:17 29.8 °C 17.3 °C 1014.1 hPa North 5 km/h 7.4 km/h 47 % 0 mm
12:22 29.8 °C 16.9 °C 1014.1 hPa North 0.8 km/h 3.7 km/h 46 % 0 mm
12:27 29.7 °C 17.6 °C 1014.1 hPa NNE 3.1 km/h 5.6 km/h 48 % 0 mm
12:32 29.5 °C 17 °C 1014.1 hPa North 3.4 km/h 5.6 km/h 47 % 0 mm
12:37 29.3 °C 17.5 °C 1014.1 hPa North 3.4 km/h 5.6 km/h 49 % 0 mm
12:42 29.2 °C 18.3 °C 1013.8 hPa North 0.2 km/h 1.9 km/h 52 % 0 mm
12:47 28.9 °C 18.7 °C 1013.8 hPa North 1.6 km/h 4.8 km/h 54 % 0 mm
12:52 28.7 °C 18.5 °C 1013.8 hPa NNE 5.6 km/h 5.6 km/h 54 % 0 mm
12:57 28.6 °C 18.1 °C 1013.4 hPa ENE 1 km/h 3.2 km/h 53 % 0 mm
13:02 28.4 °C 17.9 °C 1013.4 hPa ENE 0.5 km/h 3.7 km/h 53 % 0 mm
13:07 28.2 °C 18.8 °C 1013.4 hPa NNE 0.5 km/h 3.7 km/h 57 % 0 mm
13:12 27.8 °C 18.2 °C 1013.4 hPa NNE 1 km/h 1.9 km/h 56 % 0 mm
13:17 27.7 °C 17.5 °C 1013.4 hPa Calm   1.6 km/h 54 % 0 mm
13:22 27.8 °C 19.1 °C 1013.4 hPa Calm     59 % 0 mm
13:27 27.8 °C 17.9 °C 1013.4 hPa Calm     55 % 0 mm
13:30 27.9 °C 18.9 °C 1013.4 hPa WSW 3.9 km/h 5.6 km/h 58 % 0 mm
13:35 28.1 °C 18.5 °C 1013.4 hPa WSW 1.9 km/h 5.6 km/h 56 % 0 mm
13:40 28.4 °C 18.5 °C 1013.8 hPa SW 4 km/h 9.3 km/h 55 % 0 mm
13:50 28.9 °C 17.4 °C 1013.4 hPa SW 3.4 km/h 7.4 km/h 50 % 0 mm
13:55 29.1 °C 18.2 °C 1013.1 hPa SSE 2.6 km/h 5.6 km/h 52 % 0 mm
14:00 29.3 °C 18.4 °C 1013.1 hPa SW 2.1 km/h 5.6 km/h 52 % 0 mm
14:05 29.6 °C 18.3 °C 1013.1 hPa SW 3.2 km/h 7.4 km/h 51 % 0 mm
14:10 29.7 °C 17.6 °C 1013.1 hPa SE 2.7 km/h 7.4 km/h 48 % 0 mm
14:15 29.7 °C 17.6 °C 1013.1 hPa WSW 5.8 km/h 11.1 km/h 48 % 0 mm
14:20 29.9 °C 18.9 °C 1013.1 hPa SSE 2.4 km/h 5.6 km/h 52 % 0 mm
14:25 30 °C 17.4 °C 1012.8 hPa SSW 4.5 km/h 6.4 km/h 47 % 0 mm
14:30 30 °C 17.1 °C 1012.8 hPa SSE 2.4 km/h 5.6 km/h 46 % 0 mm
14:35 29.7 °C 17.9 °C 1012.8 hPa South 1.8 km/h 6.4 km/h 49 % 0 mm
14:40 29.8 °C 17.9 °C 1012.8 hPa SW 4.8 km/h 9.3 km/h 49 % 0 mm
14:45 29.8 °C 17.6 °C 1012.8 hPa WSW 1.4 km/h 5.6 km/h 48 % 0 mm
14:50 29.8 °C 17.3 °C 1012.8 hPa West 0.8 km/h 5.6 km/h 47 % 0 mm
14:55 29.6 °C 17.1 °C 1012.8 hPa SSW 2.9 km/h 5.6 km/h 47 % 0 mm
15:00 29.4 °C 16.9 °C 1012.8 hPa WSW 1.6 km/h 8 km/h 47 % 0 mm
15:05 29.5 °C 17.7 °C 1012.8 hPa WSW 5.1 km/h 11.1 km/h 49 % 0 mm
15:10 29.6 °C 17.4 °C 1012.8 hPa West 1.3 km/h 11.1 km/h 48 % 0 mm
15:15 29.7 °C 17.6 °C 1012.8 hPa Calm   5.6 km/h 48 % 0 mm
15:20 29.8 °C 16.9 °C 1012.8 hPa SE 3.2 km/h 7.4 km/h 46 % 0 mm
15:25 29.8 °C 17.6 °C 1012.8 hPa WSW 1 km/h 5.6 km/h 48 % 0 mm
15:30 29.9 °C 18.1 °C 1012.4 hPa SE 1.4 km/h 5.6 km/h 49 % 0 mm
15:35 29.9 °C 17.1 °C 1012.8 hPa SSW 8 km/h 11.1 km/h 46 % 0 mm
15:40 30 °C 16.8 °C 1012.4 hPa South 3.9 km/h 5.6 km/h 45 % 0 mm
15:45 29.7 °C 16.4 °C 1012.4 hPa SE 1.4 km/h 5.6 km/h 45 % 0 mm
15:50 29.5 °C 17.7 °C 1012.1 hPa SSE 1 km/h 3.7 km/h 49 % 0 mm
15:56 29.4 °C 17.2 °C 1012.1 hPa SSE 1.6 km/h 6.4 km/h 48 % 0 mm
16:01 29.3 °C 16.8 °C 1012.1 hPa SE 6.3 km/h 8 km/h 47 % 0 mm
16:06 28.9 °C 16.5 °C 1012.1 hPa SSE 11.3 km/h 19.3 km/h 47 % 0 mm
16:11 28.8 °C 17.4 °C 1012.1 hPa South 3.2 km/h 9.7 km/h 50 % 0 mm
16:16 28.8 °C 17.7 °C 1012.1 hPa SW 1.4 km/h 1.9 km/h 51 % 0 mm
16:21 28.8 °C 16.7 °C 1012.1 hPa South 3.4 km/h 5.6 km/h 48 % 0 mm
16:26 28.8 °C 17.1 °C 1011.7 hPa SE 2.3 km/h 5.6 km/h 49 % 0 mm
16:31 28.8 °C 17.3 °C 1012.1 hPa SW 3.2 km/h 5.6 km/h 50 % 0 mm
16:36 28.8 °C 18 °C 1012.1 hPa WSW 1.3 km/h 5.6 km/h 52 % 0 mm
16:41 28.8 °C 17.4 °C 1012.1 hPa SW 4.5 km/h 7.4 km/h 50 % 0 mm
16:46 28.8 °C 17.7 °C 1012.1 hPa WSW 0.6 km/h 5.6 km/h 51 % 0 mm
16:51 28.8 °C 17.3 °C 1012.1 hPa SSE 1 km/h 3.7 km/h 50 % 0 mm
16:56 28.7 °C 16.9 °C 1012.1 hPa SE 3.1 km/h 5.6 km/h 49 % 0 mm
17:01 28.5 °C 17.1 °C 1011.7 hPa SSE 1.3 km/h 6.4 km/h 50 % 0 mm
17:06 28.3 °C 17.6 °C 1012.1 hPa SW 1.9 km/h 7.4 km/h 52 % 0 mm
17:11 28.1 °C 17.6 °C 1011.7 hPa SSE 2.9 km/h 5.6 km/h 53 % 0 mm
17:16 27.9 °C 17.8 °C 1011.7 hPa SE 1.1 km/h 5.6 km/h 54 % 0 mm
17:21 27.7 °C 17.8 °C 1011.4 hPa SSE 6.9 km/h 13 km/h 55 % 0 mm
17:26 27.6 °C 18.3 °C 1011.4 hPa SE 2.9 km/h 7.4 km/h 57 % 0 mm
17:31 27.5 °C 18.8 °C 1011.1 hPa SSE 2.6 km/h 3.7 km/h 59 % 0 mm
17:36 27.4 °C 18.1 °C 1011.4 hPa South 2.6 km/h 5.6 km/h 57 % 0 mm
17:42 27.4 °C 18.1 °C 1011.1 hPa SE 6.8 km/h 11.1 km/h 57 % 0 mm
17:47 27.4 °C 18.1 °C 1011.1 hPa SW 2.4 km/h 9.3 km/h 57 % 0 mm
17:52 27.3 °C 17.8 °C 1010.7 hPa South 3.4 km/h 9.3 km/h 56 % 0 mm
17:57 27.3 °C 17.5 °C 1010.7 hPa SE 3.5 km/h 7.4 km/h 55 % 0 mm
18:02 27.3 °C 17.8 °C 1011.1 hPa South 1.9 km/h 9.3 km/h 56 % 0 mm
18:07 27.3 °C 17.4 °C 1011.1 hPa South 3.5 km/h 6.4 km/h 55 % 0 mm
18:13 27.3 °C 17.2 °C 1011.1 hPa WSW 1.9 km/h 8 km/h 54 % 0 mm
18:18 27.2 °C 16.5 °C 1011.4 hPa SE 4.2 km/h 13 km/h 52 % 0 mm
18:23 27.2 °C 16.4 °C 1011.1 hPa SSW 4.2 km/h 11.1 km/h 52 % 0 mm
18:28 27.2 °C 16.4 °C 1011.4 hPa South 0.6 km/h 3.7 km/h 52 % 0 mm
18:33 27.1 °C 16.7 °C 1011.1 hPa South 4.2 km/h 13 km/h 53 % 0 mm
18:38 27.1 °C 16.1 °C 1011.1 hPa South 4.3 km/h 11.1 km/h 51 % 0 mm
18:43 27 °C 16.3 °C 1011.1 hPa SE 2.1 km/h 5.6 km/h 52 % 0 mm
18:48 26.9 °C 16.6 °C 1011.1 hPa SSW 4.2 km/h 5.6 km/h 53 % 0 mm
18:53 26.8 °C 16.2 °C 1011.1 hPa SSW 0.8 km/h 5.6 km/h 52 % 0 mm
18:58 26.7 °C 16.3 °C 1011.1 hPa WSW 3.7 km/h 7.4 km/h 53 % 0 mm
19:03 26.7 °C 16.3 °C 1011.1 hPa SSW 2.3 km/h 5.6 km/h 53 % 0 mm
19:08 26.6 °C 16.2 °C 1011.4 hPa South 1.4 km/h 5.6 km/h 53 % 0 mm
19:13 26.4 °C 16.1 °C 1011.1 hPa ESE 2.6 km/h 5.6 km/h 53 % 0 mm
19:18 26.3 °C 15.9 °C 1011.4 hPa SSW 2.6 km/h 9.3 km/h 53 % 0 mm
19:23 26.2 °C 16.1 °C 1011.4 hPa SSW 3.9 km/h 7.4 km/h 54 % 0 mm
19:28 26.1 °C 16.3 °C 1011.4 hPa SSW 3.2 km/h 9.3 km/h 55 % 0 mm
19:33 26 °C 16.3 °C 1011.4 hPa SE 3.7 km/h 8 km/h 55 % 0 mm
19:39 25.9 °C 16.4 °C 1011.4 hPa SSE 1.6 km/h 5.6 km/h 56 % 0 mm
19:44 25.8 °C 16.9 °C 1011.4 hPa SSW 2.7 km/h 5.6 km/h 58 % 0 mm
19:49 25.6 °C 16.9 °C 1011.4 hPa South 1.4 km/h 5.6 km/h 59 % 0 mm
19:54 25.4 °C 17.1 °C 1011.1 hPa SSE 4.3 km/h 14.8 km/h 60 % 0 mm
19:59 25.2 °C 17.2 °C 1011.1 hPa South 4.2 km/h 9.3 km/h 61 % 0 mm
20:04 25.1 °C 17.3 °C 1011.1 hPa SSE 4 km/h 7.4 km/h 62 % 0 mm
20:09 24.9 °C 17.4 °C 1011.1 hPa SE 2.7 km/h 5.6 km/h 63 % 0 mm
20:14 24.8 °C 17.5 °C 1011.1 hPa South 3.1 km/h 6.4 km/h 64 % 0 mm
20:19 24.6 °C 17.8 °C 1011.1 hPa SSW 2.1 km/h 5.6 km/h 66 % 0 mm
20:24 24.5 °C 17.9 °C 1011.1 hPa SE 1.4 km/h 5.6 km/h 67 % 0 mm
20:29 24.4 °C 17.9 °C 1011.1 hPa SE 3.1 km/h 9.7 km/h 67 % 0 mm
20:34 24.3 °C 18 °C 1011.1 hPa SSE 2.1 km/h 7.4 km/h 68 % 0 mm
20:39 24.2 °C 18.2 °C 1011.1 hPa SE 5.6 km/h 9.3 km/h 69 % 0 mm
20:44 24.1 °C 18.3 °C 1011.1 hPa SSE 1.6 km/h 5.6 km/h 70 % 0 mm
20:49 24.1 °C 18.4 °C 1011.1 hPa South 1 km/h 5.6 km/h 71 % 0 mm
20:54 23.9 °C 18.6 °C 1011.1 hPa South 0.6 km/h 3.7 km/h 72 % 0 mm
20:59 23.9 °C 18.8 °C 1011.1 hPa SSE 2.1 km/h 4.8 km/h 73 % 0 mm
21:04 23.8 °C 18.9 °C 1011.1 hPa South 1 km/h 3.7 km/h 74 % 0 mm
21:09 23.8 °C 19.1 °C 1011.4 hPa SSE 1.3 km/h 6.4 km/h 75 % 0 mm
21:14 23.7 °C 19.4 °C 1011.1 hPa South 2.3 km/h 16.7 km/h 77 % 0 mm
21:19 23.6 °C 19.6 °C 1011.4 hPa SSW 2.3 km/h 5.6 km/h 78 % 0 mm
21:24 23.5 °C 19.7 °C 1011.1 hPa SSE 0.5 km/h 9.3 km/h 79 % 0 mm
21:29 23.5 °C 19.8 °C 1011.4 hPa SE 1.3 km/h 9.3 km/h 80 % 0 mm
21:34 23.4 °C 19.7 °C 1011.4 hPa South 2.4 km/h 6.4 km/h 80 % 0 mm
21:39 23.3 °C 20.1 °C 1011.1 hPa South 2.9 km/h 5.6 km/h 82 % 0 mm
21:44 23.3 °C 20.2 °C 1011.1 hPa SE 1.4 km/h 13 km/h 83 % 0 mm
21:50 23.2 °C 20.2 °C 1011.1 hPa SSE 1.3 km/h 3.2 km/h 83 % 0 mm
21:55 23.2 °C 20.3 °C 1011.1 hPa SE 2.7 km/h 5.6 km/h 84 % 0 mm
22:00 23.2 °C 20.3 °C 1011.1 hPa SE 0.2 km/h 3.7 km/h 84 % 0 mm
22:05 23.1 °C 20.3 °C 1011.1 hPa South 0.3 km/h 1.9 km/h 84 % 0 mm
22:10 23.1 °C 20.4 °C 1011.1 hPa SSE 0.6 km/h 5.6 km/h 85 % 0 mm
22:15 23.1 °C 20.4 °C 1011.1 hPa WSW 2.3 km/h 5.6 km/h 85 % 0 mm
22:20 23.1 °C 20.4 °C 1011.1 hPa SSE 1 km/h 3.7 km/h 85 % 0 mm
22:25 23.1 °C 20.4 °C 1011.1 hPa SSE 1.9 km/h 5.6 km/h 85 % 0 mm
22:30 23.1 °C 20.6 °C 1011.1 hPa SSE 2.3 km/h 7.4 km/h 86 % 0 mm
22:35 23.1 °C 20.6 °C 1011.1 hPa West 0.8 km/h 5.6 km/h 86 % 0 mm
22:40 23.1 °C 20.6 °C 1011.1 hPa WSW 2.7 km/h 9.3 km/h 86 % 0 mm
22:45 23.1 °C 20.6 °C 1011.1 hPa South 1.4 km/h 3.7 km/h 86 % 0 mm
22:50 23.1 °C 20.6 °C 1011.1 hPa SSW 1.4 km/h 3.7 km/h 86 % 0 mm
22:55 23.1 °C 20.7 °C 1011.1 hPa South 0.3 km/h 1.9 km/h 86 % 0 mm
23:00 23.1 °C 20.7 °C 1011.1 hPa South 0.3 km/h 1.9 km/h 86 % 0 mm
23:05 23.1 °C 20.7 °C 1011.1 hPa SE 1.3 km/h 5.6 km/h 86 % 0 mm
23:08 23.2 °C 20.7 °C 1010.7 hPa South 2.9 km/h 3.7 km/h 86 % 0 mm
23:13 23.2 °C 20.9 °C 1011.1 hPa Calm   3.7 km/h 87 % 0 mm
23:18 23.2 °C 20.9 °C 1011.1 hPa SSW 3.7 km/h 5.6 km/h 87 % 0 mm
23:23 23.2 °C 20.9 °C 1011.1 hPa South 4.7 km/h 6.4 km/h 87 % 0 mm
23:28 23.2 °C 20.9 °C 1011.1 hPa South 1.8 km/h 4.8 km/h 87 % 0 mm
23:33 23.2 °C 20.9 °C 1010.7 hPa SW 2.6 km/h 5.6 km/h 87 % 0 mm
23:38 23.3 °C 21 °C 1011.1 hPa SW 2.1 km/h 5.6 km/h 87 % 0 mm
23:43 23.3 °C 21 °C 1010.7 hPa SW 1.4 km/h 7.4 km/h 87 % 0 mm
23:45 23.3 °C 21.1 °C 1010.7 hPa SW 1.8 km/h 3.7 km/h 87 % 0 mm
23:50 23.3 °C 21.1 °C 1011.1 hPa SSW 2.7 km/h 7.4 km/h 87 % 0 mm
23:55 23.4 °C 21.1 °C 1011.1 hPa SSW 4.3 km/h 6.4 km/h 87 % 0 mm
Crab Meadow Weather
Compliments of Weather Underground - 3 mb

Script developed by  Jim McMurry - jmcmurry@mwt.net Adapted for the template by  Wim van der Kuil - Leuven-Template.eu

Weather Terms: Hail - Precipitation in the form of lumps of ice that form during some thunderstorms.